Change the Weather History Date:

Thursday, April 18, 2013

  Actual Average Record
Temperature  
Mean Temperature 36 °F 56 °F  
Max Temperature 46 °F 71 °F 90 °F (2002)
Min Temperature 26 °F 41 °F 24 °F (2008)
Degree Days  
Heating Degree Days 29 10  
Month to date heating degree days 288 215  
Since 1 July heating degree days 4079 4263  
Cooling Degree Days 0 0  
Month to date cooling degree days 6 0  
Year to date cooling degree days 6 2  
Moisture  
Dew Point 22 °F    
Average Humidity 58    
Maximum Humidity 85    
Minimum Humidity 31    
Precipitation  
Precipitation T in 0.06 in 0.09 in (2009)
Month to date precipitation 0.18 0.87  
Year to date precipitation 1.88 3.17  
Snow  
Snow T in - - ()
Month to date snowfall T  
Since 1 July snowfall 22.0  
Snow Depth T in    
Sea Level Pressure  
Sea Level Pressure 30.07 in    
Wind  
Wind Speed 21 mph (NNW)    
Max Wind Speed 33 mph    
Max Gust Speed 44 mph    
Visibility 10 miles    
Events Snow    
T = Trace of Precipitation, MM = Missing Value Source: NWS Daily Summary

Daily Weather History Graph

Daily Weather History Graph

Search for Another Location

Airport or City:

Trip Planner

Search our weather history database for the weather conditions in past years. The results will help you decide how hot, cold, wet, or windy it might be!

Date:

Astronomy

Apr. 18, 2013 Rise Set
Actual Time 7:07 AM CDT 8:23 PM CDT
Civil Twilight 6:40 AM CDT 8:50 PM CDT
Nautical Twilight 6:08 AM CDT 9:22 PM CDT
Astronomical Twilight 5:35 AM CDT 9:55 PM CDT
Moon 1:23 PM CDT (4/18) 2:37 AM CDT (4/18)
Length of Visible Light 14h 09m
Length of Day
13h 15m
First Quarter, 52% of the Moon is Illuminated
Apr 18
First Quarter
Apr 25
Full
May 2
Last Quarter
May 9
New
May 17
First Quarter

Hourly Weather History & Observations

Time (CDT) Temp. Windchill Dew Point Humidity Pressure Visibility Wind Dir Wind Speed Gust Speed Precip Events Conditions
12:03 AM 33.8 °F 21.3 °F 30.2 °F 87% 29.93 in 9.0 mi North 24.2 mph 32.2 mph 0.00 in   Overcast
12:53 AM 33.1 °F 20.1 °F 28.9 °F 85% 29.98 in 10.0 mi North 25.3 mph 33.4 mph 0.00 in   Overcast
1:34 AM 30.2 °F 17.1 °F 26.6 °F 86% 29.98 in 7.0 mi North 21.9 mph 35.7 mph 0.00 in Snow Light Snow
1:53 AM 30.9 °F 16.7 °F 27.0 °F 85% 29.97 in 9.0 mi North 27.6 mph 38.0 mph 0.00 in Snow Light Snow
2:18 AM 30.2 °F 17.8 °F 26.6 °F 86% 30.00 in 10.0 mi NNW 19.6 mph 28.8 mph 0.00 in   Mostly Cloudy
2:53 AM 30.0 °F 15.4 °F 26.1 °F 85% 30.00 in 9.0 mi NNW 27.6 mph 33.4 mph 0.00 in   Overcast
3:30 AM 28.4 °F 15.4 °F 24.8 °F 86% 29.98 in 10.0 mi NNW 19.6 mph 28.8 mph N/A   Overcast
3:43 AM 28.4 °F 13.3 °F 24.8 °F 86% 29.98 in 9.0 mi NNW 27.6 mph 34.5 mph 0.00 in Snow Light Snow
3:53 AM 28.0 °F 13.9 °F 24.1 °F 85% 29.99 in 9.0 mi NNW 23.0 mph 33.4 mph 0.00 in   Mostly Cloudy
4:32 AM 28.4 °F 13.0 °F 23.0 °F 80% 29.98 in 10.0 mi NNW 28.8 mph 38.0 mph N/A   Scattered Clouds
4:53 AM 27.0 °F 11.9 °F 21.9 °F 81% 30.01 in 10.0 mi NNW 25.3 mph 34.5 mph N/A   Clear
5:53 AM 27.0 °F 11.3 °F 21.9 °F 81% 30.02 in 10.0 mi NNW 27.6 mph 34.5 mph N/A   Clear
6:53 AM 26.1 °F 12.0 °F 21.0 °F 81% 30.04 in 10.0 mi NNW 20.7 mph - N/A   Clear
7:53 AM 28.0 °F 15.7 °F 21.0 °F 75% 30.09 in 10.0 mi NNW 17.3 mph - N/A   Clear
8:53 AM 30.0 °F 17.5 °F 21.9 °F 72% 30.11 in 10.0 mi NNW 19.6 mph 31.1 mph N/A   Clear
9:53 AM 33.1 °F 20.1 °F 23.0 °F 66% 30.11 in 10.0 mi North 25.3 mph 32.2 mph N/A   Clear
10:46 AM 35.6 °F 24.0 °F 24.8 °F 65% 30.08 in 10.0 mi North 23.0 mph 34.5 mph N/A   Mostly Cloudy
10:53 AM 34.0 °F 21.3 °F 23.0 °F 64% 30.11 in 10.0 mi North 25.3 mph 34.5 mph N/A   Mostly Cloudy
11:12 AM 35.6 °F 23.2 °F 21.2 °F 56% 30.09 in 10.0 mi North 26.5 mph 34.5 mph N/A   Mostly Cloudy
11:22 AM 37.4 °F 26.1 °F 23.0 °F 56% 30.09 in 10.0 mi NNW 24.2 mph 31.1 mph N/A   Mostly Cloudy
11:53 AM 36.0 °F 24.4 °F 21.0 °F 55% 30.11 in 10.0 mi North 23.0 mph 34.5 mph N/A   Mostly Cloudy
12:53 PM 39.0 °F 28.3 °F 21.9 °F 50% 30.10 in 10.0 mi NNW 24.2 mph 35.7 mph N/A   Overcast
1:53 PM 39.9 °F 29.0 °F 21.0 °F 47% 30.10 in 10.0 mi North 26.5 mph 32.2 mph N/A   Overcast
2:53 PM 39.9 °F 29.5 °F 19.9 °F 45% 30.10 in 10.0 mi North 24.2 mph 33.4 mph N/A   Mostly Cloudy
3:53 PM 46.0 °F 37.2 °F 19.9 °F 35% 30.09 in 10.0 mi NNW 26.5 mph 34.5 mph N/A   Mostly Cloudy
4:53 PM 46.0 °F 37.2 °F 17.1 °F 31% 30.07 in 10.0 mi North 26.5 mph 35.7 mph N/A   Partly Cloudy
5:53 PM 44.1 °F 34.6 °F 15.1 °F 31% 30.08 in 10.0 mi NNW 26.5 mph 38.0 mph N/A   Partly Cloudy
6:53 PM 44.1 °F 35.7 °F 15.1 °F 31% 30.10 in 10.0 mi North 20.7 mph 29.9 mph N/A   Clear
7:53 PM 41.0 °F 31.6 °F 15.1 °F 35% 30.12 in 10.0 mi NNW 20.7 mph 33.4 mph N/A   Clear
8:53 PM 37.0 °F 29.3 °F 17.1 °F 44% 30.16 in 10.0 mi NNW 11.5 mph - N/A   Partly Cloudy
9:53 PM 37.0 °F 27.7 °F 16.0 °F 42% 30.20 in 10.0 mi NNW 16.1 mph 26.5 mph N/A   Clear
10:53 PM 36.0 °F 28.5 °F 16.0 °F 44% 30.21 in 10.0 mi NW 10.4 mph - N/A   Clear
11:53 PM 32.0 °F 25.6 °F 17.1 °F 54% 30.22 in 10.0 mi WNW 6.9 mph - N/A   Clear